TimeMDT,TemperatureF,Dew PointF,Humidity,Sea Level PressureIn,VisibilityMPH,Wind Direction,Wind SpeedMPH,Gust SpeedMPH,PrecipitationIn,Events,Conditions,WindDirDegrees,DateUTC
12:53 AM,50.0,39.0,66,29.97,10.0,East,4.6,-,N/A,,Overcast,80,2011-10-24 06:53:00
1:53 AM,48.0,37.0,66,29.96,10.0,Calm,Calm,-,N/A,,Scattered Clouds,0,2011-10-24 07:53:00
3:53 AM,46.4,35.6,66,29.94,10.0,North,4.6,-,N/A,,Mostly Cloudy,10,2011-10-24 09:53:00
4:53 AM,44.1,36.0,73,29.90,10.0,North,3.5,-,N/A,,Scattered Clouds,350,2011-10-24 10:53:00
5:53 AM,44.1,36.0,73,29.91,10.0,North,4.6,-,N/A,,Scattered Clouds,10,2011-10-24 11:53:00
6:53 AM,43.0,37.0,80,29.91,10.0,North,6.9,-,N/A,,Scattered Clouds,360,2011-10-24 12:53:00
7:53 AM,45.0,37.0,74,29.91,10.0,North,5.8,-,N/A,,Scattered Clouds,350,2011-10-24 13:53:00
8:53 AM,44.6,37.4,76,29.92,10.0,North,9.2,-,N/A,,Scattered Clouds,360,2011-10-24 14:53:00
9:53 AM,48.9,39.0,69,29.91,10.0,ENE,10.4,-,N/A,,Scattered Clouds,60,2011-10-24 15:53:00
10:53 AM,51.1,39.9,66,29.89,10.0,NE,13.8,-,N/A,,Scattered Clouds,40,2011-10-24 16:53:00
11:53 AM,52.0,37.0,57,29.90,10.0,NE,16.1,-,N/A,,Scattered Clouds,50,2011-10-24 17:53:00
12:53 PM,51.8,37.4,58,29.89,10.0,NE,12.7,-,N/A,,Mostly Cloudy,40,2011-10-24 18:53:00
1:53 PM,52.0,37.0,57,29.89,10.0,NNE,9.2,-,N/A,,Overcast,20,2011-10-24 19:53:00
2:53 PM,51.1,37.0,59,29.89,10.0,North,11.5,-,N/A,,Overcast,360,2011-10-24 20:53:00
4:53 PM,48.9,37.9,66,29.93,10.0,NNW,9.2,-,N/A,,Overcast,340,2011-10-24 22:53:00
5:53 PM,46.0,41.0,83,29.96,10.0,NNW,4.6,-,0.01,Rain,Light Rain,330,2011-10-24 23:53:00
6:53 PM,45.0,43.0,93,29.99,10.0,SW,8.1,-,0.13,Rain,Light Rain,220,2011-10-25 00:53:00
7:53 PM,44.6,42.8,93,29.98,9.0,WSW,10.4,-,N/A,Rain,Light Rain,240,2011-10-25 01:53:00
8:53 PM,44.1,41.0,89,30.02,10.0,NNW,11.5,-,0.01,Rain,Light Rain,330,2011-10-25 02:53:00
9:53 PM,43.0,39.9,89,30.05,10.0,WNW,9.2,-,0.00,,Mostly Cloudy,300,2011-10-25 03:53:00
10:53 PM,43.0,39.0,86,30.06,10.0,WNW,6.9,-,0.00,,Overcast,290,2011-10-25 04:53:00
11:53 PM,42.1,37.9,85,30.09,10.0,NNW,6.9,-,N/A,,Overcast,340,2011-10-25 05:53:00